OPS 4682 DEB, 38437

Orbit data source: Space-Track

OPS 4682 DEB, 38437 is space debris in LEO originally from a launch on Sat, 03 Apr 1965 UTC launched from the Air Force Western Test Range (AFWTR). Debris objects in space refer to the collection of defunct objects orbiting the Earth. Examples of debris include non-operational satellites, rocket bodies, and fragments generated from explosions, collisions, or faulty payload assembly.

Loading next visibility...
Identifier
38437, 1965-027ES
Orbit
LEO
Country
Flag of USUS
Related business
Manufacturer
Unknown
Mission
Spacecraft
Bus & Motor
Unknown
Mass
Unknown
Launch date (UTC)
1965-04-03 (61 years ago)
Launch vehicle
Unknown
Launch site
Air Force Western Test Range (AFWTR)
Object type
Payload
Rocket body
Debris
Shape & HBR
Unknown shape, 0.1 m
Radar Cross Section
Small (<0.1 m²)

Expand to show TLE details & history
Last TLE update: 2 days ago

TLE from 2 days ago
0 OPS 4682 DEB
1 38437U 65027ES  25339.52238371  .00000696  00000-0  24240-2 0  9993
2 38437  90.2322   1.4874 0036646 316.1765  43.6448 12.95825042525462
Epoch: 2025-12-05T12:32Z
TLE epoch observation values (Epoch: 2025-12-05T12:32:13.952Z)
Latitude
-0.00005°
Longitude
98.866°
Altitude
1,261.107 km
Speed
7.234 km/s
True Right ascension
00h 05m 56s
True Declination
0° 00' 00"
Sunlit
Object was in daylight at epoch
Visualization orbit readout
Latitude
Unknown
Longitude
Unknown
Altitude
Unknown
Speed
Unknown
Apparent Right ascension
Unknown
Apparent Declination
Unknown
Sunlit
N/A
Visualization observer readout
Local Sidereal Time
20:14:04
Azimuth
Unknown
Elevation
Unknown
Doppler factor
Unknown
Orbital elements
Apogee altitude
1,303.669 km
Perigee altitude
1,247.573 km
Semi-major axis
7,653.758 km
Eccentricity
0.00366
Inclination
90.2322°
RAAN
1.4874°
Arg. of periapsis
316.1765°
True anomaly
43.93559°
Mean anomaly
43.6448°
Eccentric anomaly
43.7901°
Mean motion
3.24139 °/min
Orbital period
111.06 mins
BSTAR
0.002424
Loading maneuver chart data...
Computing Atmospheric mass density...
Loading historical data...
Loading historical data...
Loading historical data...
Loading historical data...
Loading historical data...
Loading historical data...
Loading historical data...

Documentation

Showing up to 5 results
|